| time (UTC) | temp F | wind direction | speed knots | gust knots | rain 1hr in | rain 24hr in | rain mn in | humidity % | barometer mb |
| 20260504171403 | 72 | 236 | 5.2 | 10.4 | 0.00 | 0.00 | 0.00 | 47 | 1012.1 |
| 20260504170404 | 72 | 216 | 2.6 | 12.2 | 0.00 | 0.00 | 0.00 | 47 | 1012.1 |
| 20260504160405 | 72 | 249 | 7.8 | 17.4 | 0.00 | 0.00 | 0.00 | 48 | 1012.3 |
| 20260504150406 | 71 | 270 | 4.3 | 10.4 | 0.00 | 0.00 | 0.00 | 46 | 1011.6 |
| 20260504140404 | 71 | 239 | 3.5 | 7.8 | 0.00 | 0.00 | 0.00 | 45 | 1011.0 |
| 20260504130403 | 71 | 281 | 2.6 | 5.2 | 0.00 | 0.00 | 0.00 | 42 | 1010.9 |
| 20260504070406 | 78 | 252 | 6.1 | 10.4 | 0.00 | 0.00 | 0.00 | 34 | 1009.6 |
| 20260504050406 | 80 | 236 | 4.3 | 12.2 | 0.00 | 0.00 | 0.00 | 27 | 1009.1 |
| 20260504044405 | 81 | 247 | 6.1 | 12.2 | 0.00 | 0.00 | 0.00 | 25 | 1008.9 |
| 20260504043404 | 81 | 237 | 8.7 | 15.6 | 0.00 | 0.00 | 0.00 | 24 | 1008.7 |
| 20260504041405 | 82 | 236 | 8.7 | 13.9 | 0.00 | 0.00 | 0.00 | 22 | 1008.5 |
| 20260504040404 | 82 | 253 | 8.7 | 17.4 | 0.00 | 0.00 | 0.00 | 22 | 1008.3 |
| 20260504031406 | 84 | 254 | 7.8 | 15.6 | 0.00 | 0.00 | 0.00 | 19 | 1007.2 |
| 20260504024405 | 86 | 264 | 7.0 | 17.4 | 0.00 | 0.00 | 0.00 | 18 | 1006.7 |
| 20260504023405 | 86 | 234 | 8.7 | 15.6 | 0.00 | 0.00 | 0.00 | 17 | 1006.5 |
| 20260504021404 | 87 | 245 | 7.0 | 15.6 | 0.00 | 0.00 | 0.00 | 17 | 1006.3 |
| 20260504020404 | 88 | 234 | 8.7 | 17.4 | 0.00 | 0.00 | 0.00 | 17 | 1006.1 |
| 20260504014408 | 89 | 242 | 7.0 | 13.9 | 0.00 | 0.00 | 0.00 | 17 | 1005.9 |
| 20260504013404 | 89 | 230 | 7.8 | 17.4 | 0.00 | 0.00 | 0.00 | 17 | 1005.7 |
| 20260504011408 | 91 | 235 | 8.7 | 17.4 | 0.00 | 0.00 | 0.00 | 16 | 1005.7 |
| 20260504010404 | 91 | 231 | 10.4 | 19.1 | 0.00 | 0.00 | 0.00 | 15 | 1005.7 |
| 20260504004403 | 93 | 236 | 8.7 | 17.4 | 0.00 | 0.00 | 0.00 | 14 | 1005.8 |
| 20260504003408 | 94 | 237 | 7.8 | 19.1 | 0.00 | 0.00 | 0.00 | 14 | 1005.8 |
| 20260504001404 | 95 | 245 | 8.7 | 17.4 | 0.00 | 0.00 | 0.00 | 13 | 1005.7 |
| 20260503234404 | 97 | 253 | 8.7 | 15.6 | 0.00 | 0.00 | 0.00 | 13 | 1005.6 |
| 20260503231407 | 99 | 234 | 5.2 | 11.3 | 0.00 | 0.00 | 0.00 | 12 | 1005.5 |
| 20260503230407 | 98 | 262 | 3.5 | 13.9 | 0.00 | 0.00 | 0.00 | 12 | 1005.5 |
| 20260503223407 | 99 | 223 | 7.8 | 12.2 | 0.00 | 0.00 | 0.00 | 12 | 1006.4 |
| 20260503221404 | 99 | 241 | 7.8 | 14.8 | 0.00 | 0.00 | 0.00 | 13 | 1006.7 |
| 20260503213404 | 99 | 252 | 6.1 | 13.9 | 0.00 | 0.00 | 0.00 | 13 | 1007.2 |
| 20260503210407 | 100 | 129 | 5.2 | 13.9 | 0.00 | 0.00 | 0.00 | 14 | 1007.6 |
| 20260503204404 | 100 | 159 | 2.6 | 10.4 | 0.00 | 0.00 | 0.00 | 14 | 1007.9 |
| 20260503203404 | 100 | 190 | 5.2 | 13.0 | 0.00 | 0.00 | 0.00 | 15 | 1008.1 |
| 20260503200407 | 98 | 151 | 1.7 | 10.4 | 0.00 | 0.00 | 0.00 | 17 | 1008.6 |
| 20260503194408 | 97 | 175 | 5.2 | 13.0 | 0.00 | 0.00 | 0.00 | 18 | 1008.9 |
| 20260503193407 | 97 | 192 | 5.2 | 12.2 | 0.00 | 0.00 | 0.00 | 19 | 1009.1 |
| 20260503190405 | 96 | 169 | 2.6 | 11.3 | 0.00 | 0.00 | 0.00 | 18 | 1009.5 |
| 20260503184405 | 95 | 162 | 4.3 | 10.4 | 0.00 | 0.00 | 0.00 | 20 | 1010.0 |
| 20260503181407 | 93 | 184 | 2.6 | 10.4 | 0.00 | 0.00 | 0.00 | 21 | 1010.3 |
| 20260503180403 | 92 | 174 | 6.1 | 12.2 | 0.00 | 0.00 | 0.00 | 26 | 1010.6 |
| 20260503174404 | 90 | 119 | 5.2 | 10.4 | 0.00 | 0.00 | 0.00 | 23 | 1010.8 |
| 20260503173408 | 89 | 139 | 6.1 | 12.2 | 0.00 | 0.00 | 0.00 | 24 | 1010.9 |